QPF
0.01 0.01 0.04 0.09 0.14 0.16 0.16 0.12 0.06 0.06 0.05 0.02 0.01 0.02 0.08 0.10 0.10 0.09 0.11 0.12 0.08 0.06 0.10 0.08 0.07 0.08 0.07 0.06 0.06 0.08 0.08 0.10 0.10 0.10 0.11 0.10 0.12 0.14 0.12 0.07 0.06 0.05 0.05 0.05 0.06 0.07 0.05 0.02 0.02
0.02 0.01 0.03 0.09 0.15 0.16 0.14 0.09 0.05 0.03 0.03 0.01 0.00 0.01 0.04 0.04 0.04 0.07 0.10 0.10 0.07 0.06 0.07 0.05 0.04 0.05 0.07 0.08 0.10 0.12 0.11 0.11 0.12 0.12 0.11 0.10 0.09 0.11 0.13 0.12 0.09 0.05 0.05 0.07 0.08 0.09 0.06 0.04 0.03
0.03 0.03 0.06 0.09 0.12 0.14 0.13 0.07 0.04 0.01 0.00 0.01 0.01 0.03 0.05 0.06 0.05 0.07 0.09 0.07 0.05 0.06 0.06 0.04 0.02 0.04 0.07 0.07 0.09 0.12 0.10 0.10 0.12 0.14 0.14 0.10 0.08 0.07 0.06 0.06 0.08 0.09 0.07 0.06 0.07 0.08 0.08 0.07 0.05
0.04 0.04 0.06 0.08 0.09 0.08 0.07 0.05 0.03 0.01 0.01 0.01 0.03 0.04 0.03 0.06 0.07 0.05 0.06 0.05 0.04 0.05 0.05 0.02 0.02 0.05 0.09 0.08 0.09 0.10 0.08 0.06 0.06 0.06 0.07 0.06 0.05 0.03 0.04 0.05 0.06 0.06 0.06 0.05 0.06 0.05 0.06 0.05 0.04
0.04 0.05 0.08 0.09 0.06 0.04 0.04 0.03 0.03 0.04 0.05 0.03 0.04 0.04 0.05 0.07 0.06 0.03 0.03 0.04 0.03 0.04 0.03 0.02 0.02 0.05 0.10 0.10 0.07 0.07 0.07 0.06 0.05 0.05 0.05 0.04 0.04 0.03 0.03 0.03 0.04 0.06 0.07 0.06 0.05 0.05 0.05 0.04 0.02
0.05 0.05 0.09 0.10 0.06 0.03 0.03 0.02 0.03 0.06 0.07 0.04 0.05 0.04 0.06 0.09 0.09 0.05 0.03 0.03 0.02 0.03 0.02 0.02 0.02 0.05 0.06 0.05 0.04 0.05 0.05 0.05 0.04 0.05 0.06 0.05 0.05 0.04 0.04 0.02 0.03 0.06 0.09 0.07 0.05 0.05 0.05 0.03 0.02
0.05 0.06 0.09 0.09 0.07 0.04 0.03 0.03 0.04 0.08 0.07 0.03 0.05 0.06 0.05 0.10 0.08 0.04 0.02 0.02 0.02 0.02 0.02 0.01 0.02 0.03 0.03 0.03 0.03 0.03 0.02 0.03 0.04 0.04 0.04 0.03 0.05 0.04 0.03 0.04 0.04 0.06 0.10 0.08 0.06 0.07 0.05 0.03 0.03
0.03 0.06 0.09 0.09 0.07 0.05 0.02 0.03 0.04 0.06 0.04 0.02 0.03 0.06 0.04 0.06 0.05 0.03 0.02 0.02 0.03 0.02 0.02 0.02 0.02 0.03 0.04 0.04 0.04 0.02 0.01 0.01 0.02 0.02 0.02 0.02 0.02 0.02 0.02 0.07 0.11 0.13 0.13 0.09 0.06 0.04 0.03 0.02 0.03
0.01 0.07 0.10 0.09 0.07 0.05 0.02 0.03 0.03 0.03 0.02 0.02 0.01 0.02 0.04 0.03 0.05 0.04 0.03 0.03 0.02 0.02 0.02 0.02 0.02 0.02 0.04 0.03 0.02 0.01 0.00 0.01 0.00 0.01 0.01 0.02 0.03 0.02 0.04 0.06 0.11 0.14 0.11 0.08 0.04 0.03 0.03 0.04 0.05
0.02 0.08 0.09 0.05 0.05 0.05 0.03 0.04 0.03 0.04 0.04 0.03 0.02 0.02 0.02 0.04 0.07 0.05 0.02 0.03 0.02 0.02 0.02 0.02 0.02 0.03 0.04 0.01 0.02 0.01 0.00 0.01 0.01 0.01 0.01 0.01 0.01 0.02 0.04 0.06 0.08 0.07 0.06 0.05 0.04 0.04 0.05 0.06 0.06
0.03 0.06 0.05 0.03 0.03 0.03 0.02 0.03 0.03 0.04 0.06 0.04 0.02 0.02 0.02 0.03 0.05 0.04 0.02 0.02 0.02 0.02 0.02 0.02 0.04 0.03 0.01 0.01 0.01 0.01 0.01 0.01 0.00 0.00 0.01 0.00 0.00 0.00 0.03 0.06 0.09 0.09 0.07 0.04 0.03 0.03 0.04 0.05 0.04
0.02 0.03 0.02 0.01 0.01 0.01 0.02 0.03 0.04 0.04 0.05 0.03 0.02 0.03 0.03 0.02 0.04 0.05 0.03 0.01 0.01 0.02 0.02 0.03 0.05 0.01 0.00 0.00 0.00 0.01 0.01 0.00 0.00 0.00 0.00 0.00 0.00 0.00 0.01 0.04 0.06 0.07 0.06 0.04 0.03 0.03 0.03 0.03 0.02
0.01 0.01 0.01 0.00 0.01 0.02 0.03 0.04 0.03 0.03 0.01 0.01 0.01 0.02 0.04 0.04 0.03 0.03 0.02 0.02 0.01 0.01 0.01 0.01 0.01 0.00 0.00 0.00 0.00 0.01 0.00 0.00 0.00 0.00 0.00 0.00 0.00 0.00 0.00 0.01 0.03 0.04 0.04 0.04 0.03 0.02 0.01 0.01 0.01
0.01 0.01 0.01 0.01 0.01 0.01 0.02 0.03 0.02 0.02 0.01 0.01 0.01 0.01 0.03 0.04 0.04 0.02 0.02 0.02 0.01 0.00 0.01 0.00 0.00 0.00 0.00 0.00 0.00 0.01 0.01 0.00 0.00 0.00 0.00 0.00 0.00 0.00 0.00 0.00 0.01 0.02 0.03 0.03 0.02 0.01 0.01 0.01 0.01
0.01 0.01 0.03 0.02 0.01 0.01 0.02 0.02 0.02 0.02 0.01 0.01 0.01 0.01 0.02 0.04 0.06 0.05 0.03 0.03 0.01 0.00 0.00 0.00 0.00 0.00 0.00 0.00 0.00 0.00 0.01 0.01 0.01 0.00 0.00 0.00 0.00 0.00 0.00 0.00 0.00 0.01 0.01 0.02 0.01 0.00 0.00 0.01 0.01
0.01 0.03 0.04 0.02 0.01 0.01 0.02 0.04 0.03 0.02 0.01 0.01 0.01 0.01 0.02 0.03 0.06 0.07 0.06 0.04 0.01 0.00 0.00 0.00 0.00 0.00 0.00 0.00 0.00 0.00 0.01 0.01 0.01 0.01 0.01 0.00 0.00 0.00 0.00 0.00 0.00 0.00 0.00 0.01 0.01 0.01 0.01 0.01 0.01
0.04 0.03 0.04 0.02 0.01 0.01 0.02 0.03 0.03 0.02 0.02 0.02 0.01 0.02 0.03 0.03 0.05 0.06 0.06 0.04 0.01 0.01 0.01 0.00 0.00 0.00 0.00 0.00 0.00 0.00 0.00 0.01 0.01 0.00 0.00 0.00 0.00 0.00 0.00 0.00 0.00 0.00 0.00 0.01 0.01 0.01 0.02 0.01 0.01
0.04 0.04 0.04 0.02 0.01 0.02 0.02 0.02 0.02 0.01 0.01 0.02 0.02 0.03 0.04 0.04 0.03 0.02 0.03 0.03 0.02 0.01 0.01 0.00 0.00 0.00 0.00 0.00 0.00 0.00 0.00 0.00 0.00 0.00 0.00 0.00 0.00 0.00 0.00 0.00 0.00 0.00 0.01 0.01 0.01 0.02 0.02 0.01 0.02
0.02 0.03 0.02 0.01 0.00 0.02 0.02 0.01 0.01 0.01 0.01 0.01 0.02 0.02 0.03 0.03 0.02 0.02 0.01 0.02 0.01 0.01 0.01 0.00 0.00 0.00 0.00 0.00 0.00 0.00 0.00 0.00 0.01 0.01 0.00 0.00 0.00 0.00 0.00 0.01 0.01 0.01 0.01 0.01 0.02 0.02 0.02 0.02 0.01
0.01 0.02 0.02 0.01 0.01 0.02 0.02 0.02 0.01 0.01 0.01 0.01 0.01 0.02 0.02 0.03 0.03 0.01 0.01 0.01 0.01 0.01 0.01 0.00 0.00 0.00 0.00 0.00 0.00 0.00 0.00 0.00 0.00 0.01 0.01 0.00 0.00 0.00 0.00 0.00 0.01 0.01 0.02 0.02 0.02 0.03 0.02 0.02 0.01
0.01 0.02 0.01 0.01 0.01 0.02 0.02 0.03 0.02 0.01 0.01 0.01 0.01 0.02 0.03 0.02 0.01 0.01 0.00 0.01 0.01 0.01 0.01 0.01 0.00 0.00 0.00 0.00 0.00 0.00 0.00 0.00 0.01 0.01 0.01 0.01 0.00 0.00 0.00 0.00 0.00 0.01 0.01 0.01 0.01 0.02 0.02 0.01 0.01
0.02 0.01 0.01 0.01 0.02 0.03 0.02 0.04 0.02 0.01 0.01 0.00 0.01 0.02 0.03 0.02 0.01 0.00 0.00 0.00 0.00 0.01 0.01 0.01 0.00 0.00 0.00 0.00 0.00 0.00 0.00 0.01 0.01 0.01 0.01 0.02 0.01 0.01 0.00 0.00 0.00 0.01 0.02 0.01 0.01 0.01 0.01 0.01 0.01
0.02 0.01 0.00 0.01 0.01 0.02 0.01 0.03 0.02 0.01 0.01 0.00 0.00 0.01 0.02 0.02 0.01 0.00 0.00 0.00 0.00 0.00 0.00 0.01 0.00 0.00 0.00 0.00 0.00 0.00 0.00 0.01 0.00 0.00 0.00 0.00 0.01 0.01 0.01 0.00 0.00 0.00 0.02 0.01 0.01 0.00 0.01 0.01 0.02
0.00 0.00 0.00 0.01 0.02 0.03 0.01 0.01 0.02 0.00 0.00 0.00 0.00 0.01 0.02 0.03 0.02 0.01 0.00 0.00 0.00 0.00 0.00 0.00 0.01 0.00 0.01 0.01 0.00 0.00 0.01 0.01 0.01 0.00 0.01 0.01 0.01 0.01 0.01 0.01 0.01 0.01 0.01 0.01 0.01 0.00 0.00 0.01 0.01
0.00 0.01 0.03 0.03 0.04 0.03 0.00 0.01 0.01 0.00 0.00 0.00 0.00 0.01 0.01 0.01 0.02 0.01 0.01 0.00 0.00 0.00 0.01 0.01 0.01 0.02 0.01 0.01 0.01 0.00 0.01 0.01 0.01 0.01 0.01 0.01 0.01 0.01 0.01 0.01 0.01 0.01 0.01 0.01 0.01 0.01 0.01 0.01 0.01
0.00 0.01 0.04 0.05 0.03 0.01 0.00 0.01 0.00 0.00 0.00 0.00 0.00 0.00 0.00 0.00 0.01 0.01 0.02 0.01 0.00 0.01 0.02 0.02 0.03 0.02 0.01 0.01 0.01 0.00 0.00 0.02 0.01 0.00 0.01 0.01 0.01 0.01 0.00 0.00 0.00 0.00 0.00 0.00 0.00 0.01 0.01 0.01 0.00
0.01 0.01 0.01 0.02 0.02 0.02 0.01 0.01 0.00 0.00 0.00 0.00 0.00 0.00 0.01 0.01 0.00 0.00 0.02 0.02 0.00 0.01 0.02 0.02 0.03 0.03 0.02 0.01 0.00 0.01 0.02 0.02 0.01 0.01 0.01 0.01 0.01 0.01 0.01 0.00 0.00 0.00 0.00 0.00 0.00 0.00 0.00 0.01 0.00
0.00 0.00 0.01 0.03 0.04 0.05 0.02 0.02 0.02 0.00 0.00 0.00 0.01 0.02 0.01 0.01 0.00 0.00 0.01 0.01 0.01 0.01 0.01 0.03 0.03 0.03 0.02 0.01 0.01 0.01 0.02 0.01 0.01 0.01 0.00 0.01 0.01 0.01 0.01 0.01 0.00 0.00 0.00 0.00 0.00 0.00 0.01 0.01 0.00
0.01 0.01 0.01 0.03 0.03 0.05 0.05 0.03 0.01 0.00 0.00 0.00 0.01 0.02 0.01 0.00 0.00 0.00 0.01 0.01 0.01 0.01 0.01 0.02 0.02 0.02 0.02 0.01 0.01 0.01 0.02 0.01 0.01 0.01 0.01 0.01 0.02 0.02 0.02 0.01 0.01 0.01 0.01 0.01 0.01 0.00 0.01 0.01 0.01
0.00 0.00 0.01 0.03 0.03 0.03 0.04 0.02 0.00 0.00 0.00 0.00 0.01 0.01 0.00 0.00 0.00 0.00 0.00 0.01 0.00 0.00 0.01 0.02 0.02 0.02 0.02 0.02 0.01 0.02 0.04 0.02 0.01 0.01 0.02 0.02 0.02 0.02 0.01 0.00 0.00 0.00 0.00 0.01 0.01 0.01 0.01 0.01 0.01
MSLP
1009.76 1010.46 1011.33 1012.26 1013.15 1013.90 1014.46 1014.79 1014.93 1014.93 1014.91 1014.97 1015.20 1015.63 1016.24 1016.95 1017.64 1018.17 1018.46 1018.43 1018.10 1017.54 1016.85 1016.16 1015.58 1015.18 1014.97 1014.93 1014.98 1015.07 1015.13 1015.13 1015.06 1014.96 1014.86 1014.80 1014.80 1014.86 1014.95 1015.03 1015.07 1015.05 1014.96 1014.80 1014.60 1014.39 1014.19 1014.02 1013.88
1009.99 1010.80 1011.72 1012.64 1013.47 1014.12 1014.57 1014.81 1014.89 1014.90 1014.95 1015.13 1015.50 1016.07 1016.78 1017.54 1018.24 1018.73 1018.95 1018.85 1018.46 1017.87 1017.18 1016.50 1015.96 1015.58 1015.40 1015.35 1015.40 1015.47 1015.50 1015.47 1015.38 1015.26 1015.15 1015.07 1015.04 1015.06 1015.11 1015.16 1015.17 1015.12 1015.02 1014.88 1014.71 1014.53 1014.36 1014.21 1014.08
1010.34 1011.23 1012.16 1013.03 1013.76 1014.28 1014.59 1014.72 1014.75 1014.77 1014.88 1015.16 1015.65 1016.32 1017.10 1017.89 1018.56 1019.00 1019.15 1019.00 1018.57 1017.98 1017.31 1016.69 1016.20 1015.88 1015.73 1015.70 1015.73 1015.78 1015.78 1015.72 1015.61 1015.48 1015.35 1015.26 1015.21 1015.21 1015.22 1015.23 1015.22 1015.17 1015.08 1014.96 1014.82 1014.68 1014.55 1014.43 1014.32
1010.80 1011.74 1012.65 1013.44 1014.03 1014.41 1014.59 1014.62 1014.59 1014.61 1014.78 1015.13 1015.70 1016.42 1017.23 1018.00 1018.62 1019.00 1019.08 1018.88 1018.44 1017.87 1017.27 1016.73 1016.32 1016.07 1015.96 1015.94 1015.97 1015.99 1015.96 1015.87 1015.74 1015.60 1015.47 1015.37 1015.32 1015.30 1015.30 1015.30 1015.28 1015.24 1015.16 1015.07 1014.98 1014.88 1014.78 1014.69 1014.59
1011.37 1012.31 1013.17 1013.86 1014.34 1014.58 1014.63 1014.57 1014.50 1014.53 1014.72 1015.13 1015.73 1016.47 1017.25 1017.96 1018.49 1018.77 1018.79 1018.55 1018.13 1017.61 1017.09 1016.66 1016.35 1016.17 1016.10 1016.10 1016.11 1016.09 1016.03 1015.92 1015.77 1015.63 1015.50 1015.42 1015.38 1015.37 1015.37 1015.37 1015.36 1015.33 1015.28 1015.22 1015.16 1015.09 1015.02 1014.93 1014.84
1011.99 1012.92 1013.72 1014.31 1014.67 1014.80 1014.76 1014.65 1014.55 1014.58 1014.80 1015.22 1015.81 1016.51 1017.22 1017.82 1018.25 1018.43 1018.36 1018.10 1017.70 1017.26 1016.84 1016.52 1016.31 1016.21 1016.18 1016.18 1016.17 1016.12 1016.01 1015.87 1015.72 1015.58 1015.48 1015.42 1015.40 1015.41 1015.44 1015.45 1015.46 1015.44 1015.41 1015.37 1015.32 1015.27 1015.20 1015.12 1015.03
1012.62 1013.52 1014.26 1014.77 1015.04 1015.10 1015.01 1014.86 1014.77 1014.81 1015.03 1015.44 1016.00 1016.61 1017.21 1017.68 1017.96 1018.03 1017.90 1017.62 1017.25 1016.89 1016.58 1016.36 1016.25 1016.21 1016.22 1016.21 1016.17 1016.08 1015.94 1015.78 1015.62 1015.49 1015.42 1015.39 1015.41 1015.45 1015.49 1015.52 1015.53 1015.52 1015.50 1015.47 1015.42 1015.37 1015.30 1015.22 1015.11
1013.22 1014.08 1014.77 1015.22 1015.44 1015.46 1015.35 1015.21 1015.13 1015.19 1015.41 1015.79 1016.27 1016.78 1017.23 1017.56 1017.71 1017.66 1017.47 1017.18 1016.85 1016.56 1016.35 1016.23 1016.20 1016.21 1016.23 1016.22 1016.14 1016.01 1015.84 1015.67 1015.51 1015.41 1015.36 1015.37 1015.42 1015.48 1015.53 1015.56 1015.57 1015.55 1015.52 1015.48 1015.43 1015.37 1015.30 1015.21 1015.11
1013.76 1014.59 1015.24 1015.65 1015.85 1015.86 1015.76 1015.65 1015.59 1015.66 1015.87 1016.19 1016.58 1016.97 1017.28 1017.46 1017.48 1017.35 1017.11 1016.82 1016.54 1016.32 1016.20 1016.16 1016.18 1016.23 1016.25 1016.22 1016.11 1015.95 1015.77 1015.58 1015.44 1015.35 1015.34 1015.37 1015.43 1015.50 1015.55 1015.56 1015.55 1015.51 1015.46 1015.40 1015.35 1015.30 1015.23 1015.16 1015.08
1014.26 1015.06 1015.66 1016.05 1016.24 1016.26 1016.19 1016.10 1016.07 1016.14 1016.32 1016.58 1016.88 1017.14 1017.32 1017.38 1017.29 1017.10 1016.83 1016.55 1016.32 1016.17 1016.12 1016.14 1016.21 1016.27 1016.28 1016.23 1016.11 1015.93 1015.73 1015.56 1015.43 1015.37 1015.37 1015.41 1015.48 1015.53 1015.55 1015.54 1015.49 1015.42 1015.35 1015.29 1015.25 1015.22 1015.18 1015.15 1015.11
1014.73 1015.49 1016.06 1016.43 1016.61 1016.64 1016.59 1016.53 1016.50 1016.56 1016.69 1016.88 1017.08 1017.24 1017.31 1017.27 1017.12 1016.89 1016.63 1016.39 1016.21 1016.12 1016.12 1016.18 1016.27 1016.33 1016.34 1016.28 1016.14 1015.96 1015.78 1015.61 1015.51 1015.46 1015.47 1015.52 1015.56 1015.59 1015.57 1015.52 1015.44 1015.35 1015.27 1015.22 1015.21 1015.22 1015.25 1015.29 1015.32
1015.21 1015.93 1016.46 1016.80 1016.96 1016.99 1016.95 1016.89 1016.85 1016.87 1016.95 1017.06 1017.17 1017.23 1017.22 1017.13 1016.95 1016.72 1016.49 1016.30 1016.18 1016.14 1016.18 1016.27 1016.37 1016.43 1016.44 1016.37 1016.24 1016.08 1015.91 1015.77 1015.68 1015.65 1015.66 1015.69 1015.71 1015.70 1015.64 1015.55 1015.44 1015.34 1015.28 1015.27 1015.31 1015.41 1015.53 1015.66 1015.79
1015.74 1016.40 1016.87 1017.16 1017.30 1017.31 1017.25 1017.17 1017.11 1017.08 1017.09 1017.12 1017.15 1017.15 1017.09 1016.97 1016.80 1016.61 1016.43 1016.29 1016.22 1016.23 1016.30 1016.40 1016.51 1016.57 1016.58 1016.52 1016.41 1016.27 1016.14 1016.03 1015.96 1015.94 1015.94 1015.94 1015.92 1015.87 1015.77 1015.66 1015.54 1015.46 1015.44 1015.49 1015.62 1015.81 1016.05 1016.29 1016.52
1016.30 1016.89 1017.30 1017.54 1017.63 1017.61 1017.53 1017.41 1017.30 1017.21 1017.15 1017.11 1017.08 1017.03 1016.96 1016.84 1016.71 1016.57 1016.45 1016.37 1016.35 1016.39 1016.48 1016.59 1016.69 1016.76 1016.77 1016.74 1016.66 1016.56 1016.46 1016.39 1016.33 1016.31 1016.29 1016.26 1016.20 1016.11 1016.00 1015.87 1015.77 1015.73 1015.77 1015.90 1016.13 1016.44 1016.79 1017.15 1017.48
1016.89 1017.40 1017.74 1017.92 1017.97 1017.91 1017.79 1017.63 1017.47 1017.32 1017.20 1017.10 1017.02 1016.95 1016.87 1016.79 1016.71 1016.63 1016.57 1016.54 1016.56 1016.62 1016.71 1016.81 1016.91 1016.99 1017.03 1017.02 1016.99 1016.94 1016.88 1016.82 1016.78 1016.74 1016.69 1016.63 1016.53 1016.42 1016.29 1016.18 1016.12 1016.13 1016.24 1016.46 1016.79 1017.20 1017.65 1018.11 1018.54
1017.44 1017.86 1018.14 1018.27 1018.29 1018.21 1018.06 1017.87 1017.66 1017.46 1017.29 1017.14 1017.03 1016.95 1016.89 1016.85 1016.82 1016.80 1016.79 1016.80 1016.84 1016.90 1016.98 1017.08 1017.17 1017.26 1017.32 1017.36 1017.38 1017.37 1017.35 1017.31 1017.27 1017.21 1017.13 1017.03 1016.91 1016.77 1016.65 1016.57 1016.54 1016.62 1016.80 1017.10 1017.50 1017.99 1018.52 1019.05 1019.55
1017.88 1018.24 1018.46 1018.57 1018.58 1018.49 1018.33 1018.12 1017.89 1017.65 1017.43 1017.25 1017.12 1017.05 1017.02 1017.02 1017.04 1017.07 1017.11 1017.14 1017.18 1017.23 1017.30 1017.37 1017.46 1017.56 1017.66 1017.74 1017.81 1017.85 1017.86 1017.83 1017.78 1017.69 1017.58 1017.44 1017.30 1017.16 1017.05 1016.99 1017.02 1017.14 1017.37 1017.72 1018.17 1018.70 1019.26 1019.84 1020.37
1018.16 1018.47 1018.67 1018.79 1018.81 1018.75 1018.60 1018.39 1018.13 1017.86 1017.61 1017.41 1017.27 1017.21 1017.20 1017.25 1017.33 1017.40 1017.47 1017.52 1017.55 1017.58 1017.62 1017.67 1017.76 1017.87 1017.99 1018.13 1018.24 1018.33 1018.37 1018.36 1018.29 1018.18 1018.03 1017.87 1017.70 1017.56 1017.46 1017.43 1017.49 1017.65 1017.91 1018.27 1018.72 1019.24 1019.80 1020.38 1020.93
1018.25 1018.54 1018.76 1018.92 1018.99 1018.96 1018.84 1018.63 1018.36 1018.06 1017.78 1017.55 1017.41 1017.36 1017.39 1017.49 1017.61 1017.74 1017.83 1017.89 1017.91 1017.92 1017.92 1017.96 1018.03 1018.15 1018.31 1018.49 1018.66 1018.79 1018.86 1018.86 1018.79 1018.66 1018.49 1018.30 1018.12 1017.98 1017.89 1017.89 1017.97 1018.13 1018.39 1018.72 1019.13 1019.60 1020.12 1020.66 1021.20
1018.16 1018.48 1018.75 1018.97 1019.11 1019.13 1019.04 1018.83 1018.53 1018.19 1017.87 1017.61 1017.46 1017.42 1017.49 1017.64 1017.82 1018.00 1018.13 1018.21 1018.22 1018.21 1018.19 1018.20 1018.26 1018.40 1018.58 1018.80 1019.02 1019.20 1019.31 1019.33 1019.27 1019.13 1018.94 1018.74 1018.56 1018.42 1018.35 1018.36 1018.44 1018.59 1018.81 1019.09 1019.42 1019.81 1020.25 1020.73 1021.25
1017.97 1018.34 1018.69 1018.99 1019.20 1019.27 1019.19 1018.95 1018.61 1018.21 1017.82 1017.52 1017.35 1017.32 1017.44 1017.65 1017.90 1018.14 1018.33 1018.43 1018.46 1018.43 1018.40 1018.39 1018.45 1018.58 1018.80 1019.05 1019.32 1019.54 1019.70 1019.75 1019.71 1019.58 1019.40 1019.21 1019.04 1018.91 1018.85 1018.86 1018.93 1019.06 1019.22 1019.42 1019.65 1019.94 1020.28 1020.69 1021.17
1017.75 1018.19 1018.64 1019.03 1019.30 1019.40 1019.30 1019.01 1018.59 1018.09 1017.63 1017.26 1017.06 1017.05 1017.20 1017.49 1017.83 1018.16 1018.41 1018.57 1018.62 1018.60 1018.56 1018.53 1018.58 1018.72 1018.95 1019.24 1019.55 1019.82 1020.03 1020.13 1020.12 1020.02 1019.87 1019.70 1019.55 1019.45 1019.40 1019.41 1019.47 1019.56 1019.67 1019.78 1019.92 1020.10 1020.34 1020.67 1021.09
1017.59 1018.13 1018.67 1019.14 1019.45 1019.54 1019.40 1019.03 1018.49 1017.88 1017.31 1016.87 1016.63 1016.63 1016.83 1017.20 1017.64 1018.06 1018.41 1018.63 1018.73 1018.73 1018.68 1018.65 1018.69 1018.83 1019.07 1019.38 1019.72 1020.05 1020.30 1020.46 1020.50 1020.45 1020.34 1020.21 1020.09 1020.01 1019.99 1020.01 1020.06 1020.12 1020.18 1020.23 1020.28 1020.36 1020.51 1020.76 1021.12
1017.53 1018.17 1018.80 1019.32 1019.65 1019.72 1019.50 1019.02 1018.35 1017.61 1016.92 1016.40 1016.13 1016.13 1016.39 1016.84 1017.38 1017.92 1018.36 1018.66 1018.81 1018.84 1018.80 1018.77 1018.79 1018.92 1019.16 1019.49 1019.87 1020.23 1020.54 1020.75 1020.85 1020.85 1020.79 1020.70 1020.63 1020.59 1020.59 1020.63 1020.69 1020.74 1020.76 1020.77 1020.76 1020.78 1020.85 1021.03 1021.33
1017.60 1018.32 1019.01 1019.57 1019.89 1019.91 1019.59 1019.00 1018.20 1017.33 1016.54 1015.96 1015.65 1015.67 1015.98 1016.50 1017.14 1017.78 1018.31 1018.69 1018.90 1018.96 1018.94 1018.90 1018.91 1019.03 1019.27 1019.60 1019.99 1020.39 1020.74 1021.00 1021.15 1021.21 1021.20 1021.17 1021.13 1021.13 1021.17 1021.24 1021.31 1021.37 1021.40 1021.39 1021.36 1021.34 1021.37 1021.49 1021.73
1017.73 1018.51 1019.24 1019.81 1020.10 1020.06 1019.66 1018.96 1018.06 1017.10 1016.23 1015.60 1015.28 1015.31 1015.66 1016.25 1016.97 1017.69 1018.30 1018.74 1019.00 1019.09 1019.08 1019.04 1019.05 1019.16 1019.39 1019.72 1020.12 1020.54 1020.92 1021.22 1021.41 1021.52 1021.56 1021.56 1021.57 1021.61 1021.68 1021.79 1021.90 1021.99 1022.05 1022.07 1022.05 1022.03 1022.04 1022.12 1022.31
1017.85 1018.66 1019.40 1019.96 1020.22 1020.12 1019.65 1018.89 1017.92 1016.91 1016.01 1015.36 1015.05 1015.10 1015.49 1016.12 1016.89 1017.65 1018.32 1018.80 1019.09 1019.21 1019.22 1019.19 1019.20 1019.30 1019.53 1019.86 1020.26 1020.69 1021.09 1021.41 1021.63 1021.77 1021.84 1021.88 1021.93 1022.00 1022.11 1022.25 1022.41 1022.55 1022.67 1022.74 1022.76 1022.77 1022.79 1022.86 1023.01
1017.87 1018.68 1019.40 1019.93 1020.15 1020.01 1019.51 1018.72 1017.75 1016.75 1015.87 1015.25 1014.96 1015.04 1015.45 1016.10 1016.88 1017.66 1018.33 1018.83 1019.14 1019.28 1019.31 1019.30 1019.32 1019.44 1019.67 1020.01 1020.41 1020.84 1021.24 1021.57 1021.82 1021.97 1022.06 1022.12 1022.19 1022.29 1022.43 1022.62 1022.83 1023.03 1023.22 1023.36 1023.45 1023.52 1023.57 1023.65 1023.77
1017.75 1018.52 1019.19 1019.66 1019.84 1019.68 1019.19 1018.43 1017.52 1016.58 1015.77 1015.21 1014.97 1015.08 1015.49 1016.12 1016.88 1017.63 1018.28 1018.78 1019.09 1019.25 1019.31 1019.34 1019.40 1019.54 1019.80 1020.14 1020.56 1020.99 1021.39 1021.73 1021.97 1022.13 1022.23 1022.30 1022.39 1022.51 1022.68 1022.90 1023.16 1023.43 1023.68 1023.90 1024.07 1024.20 1024.30 1024.40 1024.52
1017.49 1018.18 1018.77 1019.17 1019.31 1019.14 1018.69 1018.00 1017.18 1016.36 1015.66 1015.19 1015.01 1015.14 1015.54 1016.13 1016.83 1017.52 1018.13 1018.59 1018.90 1019.08 1019.18 1019.26 1019.38 1019.58 1019.88 1020.26 1020.69 1021.13 1021.53 1021.86 1022.10 1022.26 1022.37 1022.45 1022.55 1022.68 1022.88 1023.13 1023.43 1023.75 1024.06 1024.34 1024.58 1024.78 1024.94 1025.07 1025.19
Thickness
5792 5796 5796 5785 5766 5756 5756 5769 5780 5778 5782 5791 5794 5788 5775 5768 5760 5749 5768 5780 5780 5777 5775 5773 5773 5772 5772 5771 5771 5770 5769 5768 5767 5766 5765 5764 5763 5762 5761 5760 5759 5758 5758 5757 5757 5757 5757 5757 5757
5794 5798 5789 5774 5755 5747 5753 5769 5773 5777 5786 5793 5792 5786 5775 5767 5771 5768 5771 5777 5778 5776 5773 5771 5770 5770 5769 5769 5768 5767 5767 5766 5765 5763 5762 5761 5760 5759 5758 5757 5757 5756 5755 5755 5755 5754 5755 5755 5755
5794 5795 5777 5765 5756 5750 5753 5769 5774 5783 5791 5790 5783 5780 5771 5764 5769 5768 5773 5777 5777 5774 5771 5768 5768 5768 5767 5767 5766 5764 5763 5763 5762 5760 5759 5758 5758 5757 5756 5755 5754 5754 5753 5753 5753 5752 5752 5752 5752
5791 5782 5775 5760 5753 5762 5767 5773 5780 5779 5784 5788 5782 5769 5766 5771 5771 5771 5775 5777 5774 5771 5768 5766 5766 5765 5764 5764 5763 5762 5761 5760 5759 5758 5757 5756 5755 5755 5754 5753 5753 5752 5752 5751 5751 5750 5750 5749 5749
5787 5771 5758 5753 5756 5766 5775 5780 5782 5776 5776 5780 5776 5761 5756 5768 5774 5774 5775 5775 5772 5770 5767 5764 5763 5762 5761 5761 5760 5759 5758 5757 5756 5755 5755 5754 5753 5753 5752 5752 5751 5750 5750 5749 5749 5748 5748 5747 5747
5771 5766 5749 5745 5753 5765 5773 5779 5779 5773 5772 5776 5771 5760 5753 5766 5769 5771 5773 5773 5772 5769 5766 5762 5761 5760 5759 5758 5757 5756 5756 5755 5754 5753 5753 5752 5752 5751 5750 5750 5749 5748 5748 5747 5747 5746 5746 5745 5745
5763 5757 5750 5751 5750 5755 5766 5777 5772 5769 5768 5772 5774 5758 5753 5761 5767 5771 5772 5772 5770 5768 5765 5762 5759 5758 5756 5756 5755 5754 5753 5753 5752 5751 5751 5750 5750 5749 5749 5748 5748 5747 5746 5746 5745 5744 5744 5744 5744
5772 5759 5752 5752 5748 5750 5766 5772 5772 5768 5766 5777 5776 5757 5750 5759 5767 5769 5769 5769 5768 5767 5765 5763 5761 5758 5755 5754 5753 5752 5752 5752 5751 5750 5749 5749 5748 5748 5747 5747 5746 5745 5745 5744 5744 5743 5743 5743 5743
5776 5751 5741 5747 5748 5752 5765 5764 5768 5774 5768 5770 5772 5767 5762 5765 5766 5764 5762 5762 5762 5763 5763 5762 5761 5759 5757 5755 5753 5751 5751 5750 5750 5749 5748 5748 5747 5747 5746 5745 5745 5744 5743 5743 5743 5742 5741 5741 5741
5765 5741 5743 5757 5762 5759 5762 5762 5764 5763 5758 5757 5759 5761 5764 5763 5761 5758 5756 5755 5756 5757 5759 5760 5759 5758 5757 5756 5753 5752 5751 5750 5749 5749 5748 5747 5747 5746 5745 5744 5743 5742 5742 5742 5741 5741 5740 5740 5740
5763 5747 5754 5760 5766 5764 5760 5760 5765 5757 5748 5753 5752 5754 5759 5758 5758 5756 5755 5755 5755 5757 5757 5759 5758 5757 5756 5755 5753 5752 5751 5750 5749 5749 5748 5747 5746 5745 5744 5742 5741 5741 5741 5741 5741 5740 5740 5739 5739
5758 5757 5760 5760 5764 5762 5759 5759 5757 5755 5753 5760 5760 5759 5757 5755 5754 5754 5753 5754 5755 5754 5754 5756 5757 5757 5755 5754 5752 5751 5749 5749 5748 5748 5747 5746 5745 5744 5744 5743 5741 5741 5741 5741 5740 5739 5739 5738 5737
5754 5754 5759 5761 5762 5761 5759 5754 5751 5751 5758 5761 5760 5757 5754 5753 5753 5755 5755 5755 5754 5752 5752 5754 5756 5755 5754 5752 5750 5749 5747 5746 5746 5745 5745 5745 5743 5743 5742 5742 5740 5740 5739 5739 5738 5737 5736 5735 5734
5754 5755 5755 5757 5757 5757 5752 5750 5749 5748 5756 5756 5754 5752 5753 5752 5752 5752 5753 5752 5752 5751 5751 5753 5753 5753 5753 5750 5748 5747 5745 5744 5743 5742 5743 5743 5742 5741 5740 5739 5738 5737 5737 5737 5736 5734 5732 5730 5729
5757 5748 5746 5750 5752 5752 5750 5739 5743 5751 5754 5751 5751 5751 5751 5752 5752 5751 5752 5752 5752 5751 5751 5751 5751 5751 5750 5748 5745 5744 5742 5742 5740 5740 5740 5741 5740 5739 5738 5737 5736 5735 5735 5735 5733 5731 5729 5727 5725
5749 5740 5730 5742 5749 5750 5740 5724 5742 5753 5750 5746 5748 5749 5747 5749 5751 5752 5752 5752 5752 5750 5749 5748 5749 5748 5746 5744 5742 5741 5740 5739 5738 5737 5737 5738 5737 5737 5735 5734 5733 5733 5732 5731 5729 5727 5724 5722 5720
5735 5726 5726 5735 5748 5747 5738 5728 5742 5751 5749 5744 5745 5745 5745 5745 5747 5749 5751 5751 5750 5748 5746 5745 5745 5744 5742 5741 5739 5738 5737 5736 5735 5734 5734 5734 5734 5733 5732 5731 5731 5730 5729 5728 5727 5723 5721 5718 5715
5723 5728 5729 5731 5743 5743 5735 5733 5742 5749 5748 5745 5745 5744 5743 5742 5744 5748 5749 5748 5747 5747 5745 5743 5742 5741 5739 5738 5737 5734 5734 5733 5732 5731 5730 5730 5730 5730 5729 5728 5727 5727 5725 5723 5722 5720 5719 5716 5714
5739 5734 5730 5736 5747 5740 5734 5734 5739 5746 5746 5744 5743 5743 5742 5743 5746 5747 5747 5746 5745 5744 5742 5741 5739 5738 5736 5734 5731 5728 5727 5728 5728 5727 5727 5727 5727 5726 5726 5725 5724 5723 5721 5719 5719 5717 5714 5712 5712
5738 5730 5729 5735 5746 5740 5734 5735 5743 5746 5745 5745 5744 5743 5744 5743 5743 5743 5743 5743 5742 5741 5740 5739 5737 5736 5734 5732 5730 5728 5727 5726 5725 5725 5724 5724 5723 5723 5723 5722 5720 5719 5718 5716 5715 5714 5710 5710 5711
5732 5728 5728 5728 5736 5740 5733 5726 5737 5746 5749 5748 5749 5748 5747 5745 5742 5741 5740 5740 5739 5738 5737 5738 5736 5734 5733 5731 5729 5727 5724 5723 5721 5720 5720 5721 5721 5720 5720 5719 5718 5717 5715 5713 5712 5711 5709 5705 5707
5723 5736 5735 5731 5724 5720 5727 5709 5729 5741 5740 5743 5745 5746 5746 5747 5745 5741 5739 5738 5737 5737 5737 5736 5735 5733 5731 5730 5726 5723 5718 5716 5717 5718 5718 5718 5718 5718 5717 5717 5716 5715 5713 5711 5711 5710 5709 5705 5702
5730 5740 5735 5732 5725 5720 5727 5716 5725 5741 5733 5738 5743 5746 5747 5747 5746 5742 5740 5739 5738 5737 5736 5735 5733 5732 5730 5728 5726 5722 5719 5718 5718 5718 5716 5716 5716 5715 5715 5714 5714 5712 5710 5709 5708 5707 5706 5704 5702
5739 5735 5732 5730 5722 5704 5723 5719 5717 5735 5740 5742 5746 5747 5747 5747 5746 5744 5742 5740 5737 5736 5733 5732 5730 5728 5728 5727 5725 5722 5719 5717 5715 5714 5713 5712 5713 5713 5712 5712 5711 5709 5708 5706 5705 5704 5703 5702 5701
5732 5715 5700 5697 5696 5706 5734 5725 5727 5748 5755 5752 5749 5748 5748 5747 5744 5741 5739 5736 5734 5732 5730 5729 5726 5725 5725 5725 5723 5722 5719 5717 5715 5713 5711 5710 5709 5708 5709 5709 5707 5706 5705 5703 5702 5701 5700 5699 5697
5724 5718 5696 5687 5695 5711 5728 5723 5737 5758 5761 5759 5756 5752 5748 5745 5743 5740 5738 5735 5732 5730 5728 5726 5724 5722 5723 5722 5722 5721 5720 5717 5715 5714 5712 5710 5709 5708 5707 5706 5704 5703 5702 5700 5699 5697 5697 5696 5694
5719 5719 5727 5713 5713 5709 5719 5731 5741 5755 5752 5752 5751 5748 5744 5743 5742 5740 5737 5734 5731 5728 5726 5726 5723 5721 5720 5720 5719 5718 5717 5716 5714 5713 5712 5710 5708 5707 5705 5703 5701 5699 5698 5697 5696 5694 5692 5692 5690
5730 5726 5717 5706 5693 5692 5709 5718 5721 5734 5739 5744 5744 5742 5742 5742 5740 5739 5736 5733 5731 5728 5726 5724 5723 5720 5718 5717 5716 5716 5715 5714 5713 5712 5709 5707 5706 5704 5702 5700 5698 5696 5695 5694 5692 5690 5689 5687 5686
5718 5717 5716 5711 5708 5692 5689 5706 5744 5743 5743 5742 5743 5743 5741 5740 5738 5736 5734 5732 5730 5727 5724 5721 5719 5717 5716 5715 5714 5712 5712 5711 5710 5709 5707 5705 5703 5701 5699 5697 5695 5693 5691 5690 5688 5686 5685 5683 5682
5723 5718 5714 5697 5698 5706 5696 5704 5749 5750 5749 5746 5742 5742 5742 5740 5738 5736 5733 5730 5727 5724 5721 5719 5717 5715 5714 5713 5711 5709 5708 5708 5706 5705 5704 5702 5700 5699 5697 5695 5693 5690 5689 5687 5685 5683 5681 5679 5678